• In Netherlands
  • List of Countries
  • For 7 days
  • Water Temperature
  • Satellite Maps
  • Weather Map
  • Weather Widgets
  • user-avatar
    Login

    Hourly Weather San Juan

    Today, 24 March, Friday

    Time Temperature Precipitation Wind Pressure Humidity
    00:00 +24°C° 0 mm 2 mps 705 mmHg 52%
    01:00 +24°C° 0 mm 2 mps 705 mmHg 55%
    02:00 +23°C° 0 mm 2 mps 705 mmHg 57%
    03:00 +23°C° 0 mm 2 mps 705 mmHg 58%
    04:00 +23°C° 0 mm 2 mps 705 mmHg 60%
    05:00 +24°C° 0 mm 2 mps 705 mmHg 56%
    06:00 +25°C° 0 mm 2 mps 705 mmHg 53%
    07:00 +26°C° 0 mm 2 mps 706 mmHg 50%
    08:00 +27°C° 0 mm 2 mps 706 mmHg 44%
    09:00 +29°C° 0 mm 2 mps 705 mmHg 38%
    10:00 +31°C° 0 mm 2 mps 705 mmHg 33%
    11:00 +32°C° 0 mm 2 mps 705 mmHg 30%
    12:00 +32°C° 0 mm 2 mps 704 mmHg 27%
    13:00 +34°C° 0 mm 3 mps 704 mmHg 24%
    14:00 +34°C° 0.1 mm 3 mps 703 mmHg 24%
    15:00 +34°C° 0.1 mm 3 mps 703 mmHg 24%
    16:00 +34°C° 0.1 mm 3 mps 703 mmHg 24%
    17:00 +31°C° 0.2 mm 3 mps 703 mmHg 28%
    18:00 +29°C° 0.2 mm 2 mps 703 mmHg 33%
    19:00 +27°C° 0.2 mm 2 mps 703 mmHg 38%
    20:00 +26°C° 0.3 mm 2 mps 704 mmHg 43%
    21:00 +25°C° 0.3 mm 2 mps 704 mmHg 48%
    22:00 +25°C° 0.3 mm 2 mps 704 mmHg 52%
    23:00 +24°C° 0.1 mm 2 mps 704 mmHg 56%

    Tomorrow, 25 March, Saturday

    Time Temperature Precipitation Wind Pressure Humidity
    00:00 +24°C° 0.1 mm 2 mps 703 mmHg 60%
    01:00 +23°C° 0.1 mm 2 mps 703 mmHg 63%
    02:00 +23°C° 0 mm 2 mps 703 mmHg 64%
    03:00 +23°C° 0 mm 2 mps 703 mmHg 64%
    04:00 +23°C° 0 mm 2 mps 702 mmHg 64%
    05:00 +23°C° 0 mm 2 mps 703 mmHg 60%
    06:00 +24°C° 0 mm 2 mps 703 mmHg 55%
    07:00 +25°C° 0 mm 2 mps 704 mmHg 51%
    08:00 +27°C° 0 mm 2 mps 704 mmHg 45%
    09:00 +28°C° 0 mm 2 mps 704 mmHg 40%
    10:00 +30°C° 0 mm 2 mps 704 mmHg 34%
    11:00 +31°C° 0.1 mm 2 mps 704 mmHg 31%
    12:00 +32°C° 0.1 mm 2 mps 703 mmHg 28%
    13:00 +34°C° 0.1 mm 2 mps 703 mmHg 25%
    14:00 +34°C° 0.1 mm 2 mps 702 mmHg 24%
    15:00 +34°C° 0.1 mm 2 mps 702 mmHg 24%
    16:00 +34°C° 0.1 mm 2 mps 702 mmHg 23%
    17:00 +31°C° 0.1 mm 2 mps 702 mmHg 28%
    18:00 +28°C° 0.1 mm 2 mps 702 mmHg 34%
    19:00 +26°C° 0.1 mm 2 mps 703 mmHg 39%
    20:00 +26°C° 0.1 mm 2 mps 703 mmHg 40%
    21:00 +25°C° 0.1 mm 2 mps 703 mmHg 41%
    22:00 +25°C° 0.1 mm 2 mps 704 mmHg 42%
    23:00 +24°C° 0.1 mm 2 mps 703 mmHg 46%

    Day after tomorrow, 27 March, Monday

    Time Temperature Precipitation Wind Pressure Humidity
    00:00 +24°C° 0.2 mm 2 mps 704 mmHg 59%
    01:00 +23°C° 0.2 mm 2 mps 704 mmHg 67%
    02:00 +22°C° 0.1 mm 1 mps 704 mmHg 70%
    03:00 +22°C° 0.1 mm 1 mps 704 mmHg 72%
    04:00 +21°C° 0.1 mm 1 mps 704 mmHg 75%
    05:00 +22°C° 0 mm 1 mps 705 mmHg 71%
    06:00 +23°C° 0 mm 1 mps 705 mmHg 67%
    07:00 +25°C° 0 mm 1 mps 706 mmHg 62%
    08:00 +26°C° 0 mm 1 mps 706 mmHg 56%
    09:00 +28°C° 0 mm 2 mps 706 mmHg 50%
    10:00 +29°C° 0 mm 2 mps 706 mmHg 44%
    11:00 +30°C° 0 mm 2 mps 706 mmHg 40%
    12:00 +31°C° 0 mm 2 mps 705 mmHg 35%
    13:00 +32°C° 0 mm 2 mps 704 mmHg 31%
    14:00 +32°C° 0 mm 2 mps 704 mmHg 31%
    15:00 +32°C° 0 mm 2 mps 704 mmHg 31%
    16:00 +33°C° 0 mm 3 mps 704 mmHg 31%
    17:00 +31°C° 0.2 mm 3 mps 704 mmHg 36%
    18:00 +29°C° 0.2 mm 3 mps 705 mmHg 42%
    19:00 +27°C° 0.2 mm 3 mps 705 mmHg 48%
    20:00 +26°C° 0.4 mm 2 mps 706 mmHg 53%
    21:00 +25°C° 0.4 mm 2 mps 706 mmHg 58%
    22:00 +24°C° 0.4 mm 1 mps 706 mmHg 62%
    23:00 +24°C° 0.3 mm 1 mps 706 mmHg 64%

    27 March, Monday

    Time Temperature Precipitation Wind Pressure Humidity
    00:00 +24°C° 0.2 mm 2 mps 704 mmHg 59%
    01:00 +23°C° 0.2 mm 2 mps 704 mmHg 67%
    02:00 +22°C° 0.1 mm 1 mps 704 mmHg 70%
    03:00 +22°C° 0.1 mm 1 mps 704 mmHg 72%
    04:00 +21°C° 0.1 mm 1 mps 704 mmHg 75%
    05:00 +22°C° 0 mm 1 mps 705 mmHg 71%
    06:00 +23°C° 0 mm 1 mps 705 mmHg 67%
    07:00 +25°C° 0 mm 1 mps 706 mmHg 62%
    08:00 +26°C° 0 mm 1 mps 706 mmHg 56%
    09:00 +28°C° 0 mm 2 mps 706 mmHg 50%
    10:00 +29°C° 0 mm 2 mps 706 mmHg 44%
    11:00 +30°C° 0 mm 2 mps 706 mmHg 40%
    12:00 +31°C° 0 mm 2 mps 705 mmHg 35%
    13:00 +32°C° 0 mm 2 mps 704 mmHg 31%
    14:00 +32°C° 0 mm 2 mps 704 mmHg 31%
    15:00 +32°C° 0 mm 2 mps 704 mmHg 31%
    16:00 +33°C° 0 mm 3 mps 704 mmHg 31%
    17:00 +31°C° 0.2 mm 3 mps 704 mmHg 36%
    18:00 +29°C° 0.2 mm 3 mps 705 mmHg 42%
    19:00 +27°C° 0.2 mm 3 mps 705 mmHg 48%
    20:00 +26°C° 0.4 mm 2 mps 706 mmHg 53%
    21:00 +25°C° 0.4 mm 2 mps 706 mmHg 58%
    22:00 +24°C° 0.4 mm 1 mps 706 mmHg 62%
    23:00 +24°C° 0.3 mm 1 mps 706 mmHg 64%

    28 March, Tuesday

    Time Temperature Precipitation Wind Pressure Humidity
    00:00 +23°C° 0.3 mm 1 mps 706 mmHg 66%
    01:00 +22°C° 0.3 mm 1 mps 706 mmHg 68%
    02:00 +22°C° 0.2 mm 1 mps 706 mmHg 70%
    03:00 +22°C° 0.2 mm 1 mps 705 mmHg 73%
    04:00 +21°C° 0.2 mm 1 mps 705 mmHg 75%
    05:00 +22°C° 0.1 mm 1 mps 706 mmHg 70%
    06:00 +24°C° 0.1 mm 1 mps 706 mmHg 66%
    07:00 +25°C° 0.1 mm 1 mps 707 mmHg 61%
    08:00 +26°C° 0 mm 1 mps 707 mmHg 56%
    09:00 +28°C° 0 mm 1 mps 707 mmHg 50%
    10:00 +29°C° 0 mm 1 mps 706 mmHg 45%
    11:00 +31°C° 0 mm 2 mps 706 mmHg 41%
    12:00 +32°C° 0 mm 2 mps 705 mmHg 37%
    13:00 +34°C° 0 mm 2 mps 705 mmHg 33%
    14:00 +34°C° 0.1 mm 2 mps 704 mmHg 32%
    15:00 +34°C° 0.1 mm 2 mps 704 mmHg 32%
    16:00 +34°C° 0.1 mm 2 mps 704 mmHg 32%
    17:00 +31°C° 0.1 mm 2 mps 704 mmHg 40%
    18:00 +28°C° 0.1 mm 2 mps 704 mmHg 48%
    19:00 +26°C° 0.1 mm 2 mps 704 mmHg 56%
    20:00 +26°C° 0.1 mm 2 mps 704 mmHg 57%
    21:00 +25°C° 0.1 mm 2 mps 704 mmHg 59%
    22:00 +25°C° 0.1 mm 2 mps 704 mmHg 60%
    23:00 +24°C° 0.1 mm 1 mps 704 mmHg 65%

    29 March, Wednesday

    Time Temperature Precipitation Wind Pressure Humidity
    00:00 +23°C° 0.1 mm 1 mps 703 mmHg 70%
    01:00 +23°C° 0.1 mm 1 mps 703 mmHg 75%
    02:00 +23°C° 0.1 mm 1 mps 702 mmHg 76%
    03:00 +22°C° 0.1 mm 1 mps 702 mmHg 78%
    04:00 +22°C° 0.1 mm 1 mps 702 mmHg 80%
    05:00 +23°C° 0 mm 2 mps 702 mmHg 76%
    06:00 +24°C° 0 mm 2 mps 702 mmHg 73%
    07:00 +25°C° 0 mm 2 mps 702 mmHg 69%
    08:00 +27°C° 0 mm 3 mps 702 mmHg 60%
    09:00 +29°C° 0 mm 4 mps 702 mmHg 51%
    10:00 +32°C° 0 mm 4 mps 702 mmHg 41%
    11:00 +33°C° 0 mm 5 mps 701 mmHg 35%
    12:00 +35°C° 0 mm 6 mps 700 mmHg 29%
    13:00 +36°C° 0 mm 6 mps 700 mmHg 23%
    14:00 +36°C° 0 mm 6 mps 699 mmHg 21%
    15:00 +36°C° 0 mm 5 mps 699 mmHg 19%
    16:00 +36°C° 0 mm 5 mps 699 mmHg 18%
    17:00 +33°C° 0 mm 4 mps 699 mmHg 27%
    18:00 +29°C° 0 mm 4 mps 700 mmHg 37%
    19:00 +26°C° 0 mm 3 mps 700 mmHg 47%
    20:00 +25°C° 0.1 mm 3 mps 701 mmHg 50%
    21:00 +25°C° 0.1 mm 3 mps 702 mmHg 54%
    22:00 +23°C° 0.1 mm 4 mps 702 mmHg 57%
    23:00 +23°C° 0.2 mm 5 mps 703 mmHg 60%
    Show more